QAK033 MMUN-MUHA

Flight info

Callsign QAK033
Flight time 0h 45m
Altitude 33000
Route NUDAL1A NUDAL UR506 KALNO VETSI2A
Aircraft A320/M-SDE3FGHIRWY/LB1

Departure

Time 2026-04-29 15:58
Airport Cancún International Airport (MMUN)

Arrival

Time 2026-04-29 16:44
Airport José Martí International Airport (MUHA)
Time Latitude Longitude Altitude Speed Heading
2026-04-29 15:39 21.03961 -86.87711 30 ft 1 kts 73°
2026-04-29 15:49 21.03953 -86.87733 28 ft 4 kts 64°
2026-04-29 15:49 21.03939 -86.87757 26 ft 4 kts 43°
2026-04-29 15:50 21.03917 -86.87772 28 ft 4 kts
2026-04-29 15:50 21.03895 -86.87766 29 ft 3 kts 305°
2026-04-29 15:50 21.03893 -86.87764 29 ft 0 kts 303°
2026-04-29 15:53 21.03903 -86.87780 31 ft 8 kts 303°
2026-04-29 15:53 21.03942 -86.87843 30 ft 14 kts 304°
2026-04-29 15:53 21.04012 -86.87955 30 ft 22 kts 303°
2026-04-29 15:54 21.04103 -86.88100 30 ft 23 kts 304°
2026-04-29 15:54 21.04189 -86.88236 30 ft 21 kts 303°
2026-04-29 15:54 21.04266 -86.88359 31 ft 19 kts 303°
2026-04-29 15:54 21.04338 -86.88473 31 ft 18 kts 303°
2026-04-29 15:55 21.04405 -86.88579 31 ft 16 kts 304°
2026-04-29 15:55 21.04465 -86.88676 31 ft 15 kts 303°
2026-04-29 15:55 21.04521 -86.88766 30 ft 14 kts 304°
2026-04-29 15:55 21.04574 -86.88850 30 ft 13 kts 304°
2026-04-29 15:56 21.04623 -86.88928 30 ft 12 kts 303°
2026-04-29 15:56 21.04634 -86.89005 30 ft 10 kts 240°
2026-04-29 15:56 21.04587 -86.89043 31 ft 7 kts 214°
2026-04-29 15:56 21.04553 -86.89067 32 ft 5 kts 212°
2026-04-29 15:57 21.04525 -86.89080 32 ft 3 kts 185°
2026-04-29 15:57 21.04513 -86.89068 32 ft 0 kts 126°
2026-04-29 15:57 21.04512 -86.89066 32 ft 3 kts 126°
2026-04-29 15:58 21.04385 -86.88863 33 ft 70 kts 123°
2026-04-29 15:58 21.03991 -86.88234 34 ft 131 kts 124°
2026-04-29 15:58 21.03391 -86.87289 172 ft 165 kts 124°
2026-04-29 15:58 21.02758 -86.86283 838 ft 164 kts 124°
2026-04-29 15:59 21.02134 -86.85280 1682 ft 161 kts 124°
2026-04-29 15:59 21.01470 -86.84220 2123 ft 182 kts 124°
2026-04-29 15:59 21.00743 -86.83015 2434 ft 205 kts 117°
2026-04-29 15:59 21.00451 -86.81453 2780 ft 233 kts 85°
2026-04-29 16:00 21.00936 -86.79707 3275 ft 255 kts 74°
2026-04-29 16:00 21.01415 -86.77858 4084 ft 260 kts 79°
2026-04-29 16:00 21.01810 -86.75949 4977 ft 264 kts 80°
2026-04-29 16:00 21.02190 -86.73992 5795 ft 270 kts 81°
2026-04-29 16:01 21.02575 -86.72027 6600 ft 275 kts 79°
2026-04-29 16:01 21.02983 -86.70008 7445 ft 277 kts 78°
2026-04-29 16:01 21.03408 -86.67994 8326 ft 278 kts 77°
2026-04-29 16:01 21.03847 -86.65969 9181 ft 280 kts 76°
2026-04-29 16:02 21.04288 -86.63956 10008 ft 281 kts 76°
2026-04-29 16:02 21.04752 -86.61850 10359 ft 301 kts 75°
2026-04-29 16:02 21.05252 -86.59579 10547 ft 323 kts 76°
2026-04-29 16:02 21.05772 -86.57215 11005 ft 333 kts 75°
2026-04-29 16:03 21.06306 -86.54778 11674 ft 336 kts 75°
2026-04-29 16:03 21.06843 -86.52320 12380 ft 339 kts 75°
2026-04-29 16:03 21.07377 -86.49879 13081 ft 341 kts 75°
2026-04-29 16:03 21.07920 -86.47399 13775 ft 343 kts 75°
2026-04-29 16:04 21.08466 -86.44898 14362 ft 346 kts 74°
2026-04-29 16:04 21.09020 -86.42366 14918 ft 350 kts 74°
2026-04-29 16:04 21.09573 -86.39834 15453 ft 354 kts 74°
2026-04-29 16:04 21.10141 -86.37246 15975 ft 359 kts 74°
2026-04-29 16:05 21.10715 -86.34617 16502 ft 364 kts 74°
2026-04-29 16:05 21.11292 -86.31961 17034 ft 368 kts 74°
2026-04-29 16:05 21.11868 -86.29299 17566 ft 372 kts 74°
2026-04-29 16:05 21.12455 -86.26579 18087 ft 376 kts 74°
2026-04-29 16:06 21.13049 -86.23827 18572 ft 381 kts 74°
2026-04-29 16:06 21.13653 -86.21043 19040 ft 385 kts 74°
2026-04-29 16:06 21.14259 -86.18255 19520 ft 388 kts 74°
2026-04-29 16:06 21.14876 -86.15418 19998 ft 392 kts 74°
2026-04-29 16:07 21.15501 -86.12544 20485 ft 396 kts 74°
2026-04-29 16:07 21.15918 -86.10627 20804 ft 398 kts 74°
2026-04-29 16:07 21.16748 -86.06788 21433 ft 403 kts 74°
2026-04-29 16:07 21.17383 -86.03835 21901 ft 407 kts 74°
2026-04-29 16:08 21.18024 -86.00860 22368 ft 410 kts 74°
2026-04-29 16:08 21.18662 -85.97902 22807 ft 414 kts 74°
2026-04-29 16:08 21.19318 -85.94861 23251 ft 418 kts 74°
2026-04-29 16:08 21.19974 -85.91806 23678 ft 421 kts 73°
2026-04-29 16:09 21.20632 -85.88730 24037 ft 424 kts 73°
2026-04-29 16:09 21.21285 -85.85676 24413 ft 427 kts 73°
2026-04-29 16:09 21.21954 -85.82554 24789 ft 429 kts 73°
2026-04-29 16:09 21.22628 -85.79412 25151 ft 431 kts 73°
2026-04-29 16:10 21.23296 -85.76305 25501 ft 433 kts 73°
2026-04-29 16:10 21.23977 -85.73135 25855 ft 435 kts 73°
2026-04-29 16:10 21.24655 -85.69966 26208 ft 437 kts 73°
2026-04-29 16:10 21.25336 -85.66777 26555 ft 439 kts 73°
2026-04-29 16:11 21.26099 -85.63642 26892 ft 438 kts 67°
2026-04-29 16:11 21.27299 -85.60634 27227 ft 435 kts 58°
2026-04-29 16:11 21.28870 -85.57913 27559 ft 434 kts 52°
2026-04-29 16:11 21.30540 -85.55211 27889 ft 436 kts 52°
2026-04-29 16:12 21.32227 -85.52478 28212 ft 438 kts 52°
2026-04-29 16:12 21.33362 -85.50634 28433 ft 439 kts 52°
2026-04-29 16:12 21.35597 -85.46997 28842 ft 442 kts 52°
2026-04-29 16:12 21.37292 -85.44238 29142 ft 444 kts 52°
2026-04-29 16:13 21.38997 -85.41455 29428 ft 445 kts 52°
2026-04-29 16:13 21.40684 -85.38704 29708 ft 447 kts 52°
2026-04-29 16:13 21.42408 -85.35896 29981 ft 449 kts 52°
2026-04-29 16:13 21.44128 -85.33088 30219 ft 451 kts 52°
2026-04-29 16:14 21.45855 -85.30263 30432 ft 452 kts 52°
2026-04-29 16:14 21.47579 -85.27434 30642 ft 453 kts 52°
2026-04-29 16:14 21.49283 -85.24643 30950 ft 451 kts 52°
2026-04-29 16:14 21.51005 -85.21830 31258 ft 450 kts 52°
2026-04-29 16:15 21.52725 -85.19016 31565 ft 448 kts 52°
2026-04-29 16:15 21.54440 -85.16209 31880 ft 447 kts 52°
2026-04-29 16:15 21.56118 -85.13455 32203 ft 445 kts 52°
2026-04-29 16:15 21.57814 -85.10670 32513 ft 444 kts 52°
2026-04-29 16:16 21.59504 -85.07894 32829 ft 442 kts 52°
2026-04-29 16:16 21.61193 -85.05122 33029 ft 441 kts 52°
2026-04-29 16:16 21.62867 -85.02371 33065 ft 437 kts 52°
2026-04-29 16:17 21.66176 -84.96937 33062 ft 435 kts 52°
2026-04-29 16:17 21.69496 -84.91477 33068 ft 435 kts 52°
2026-04-29 16:18 21.72788 -84.86063 33068 ft 435 kts 52°
2026-04-29 16:18 21.76111 -84.80595 33066 ft 436 kts 52°
2026-04-29 16:19 21.79414 -84.75146 33063 ft 436 kts 52°
2026-04-29 16:19 21.82698 -84.69629 33059 ft 437 kts 53°
2026-04-29 16:20 21.85946 -84.64105 33053 ft 438 kts 53°
2026-04-29 16:20 21.89255 -84.58625 33052 ft 438 kts 52°
2026-04-29 16:21 21.92641 -84.53180 33050 ft 439 kts 51°
2026-04-29 16:21 21.96040 -84.47707 33051 ft 439 kts 52°
2026-04-29 16:22 21.99408 -84.42218 33052 ft 440 kts 52°
2026-04-29 16:22 22.02220 -84.37621 33050 ft 441 kts 52°
2026-04-29 16:23 22.05618 -84.32071 33049 ft 442 kts 52°
2026-04-29 16:23 22.09001 -84.26551 33050 ft 443 kts 52°
2026-04-29 16:24 22.12413 -84.20980 33047 ft 444 kts 52°
2026-04-29 16:24 22.15806 -84.15423 33050 ft 445 kts 52°
2026-04-29 16:25 22.19221 -84.09830 33047 ft 447 kts 52°
2026-04-29 16:25 22.22642 -84.04224 33054 ft 448 kts 52°
2026-04-29 16:26 22.26052 -83.98634 33050 ft 449 kts 52°
2026-04-29 16:26 22.29505 -83.92950 33047 ft 452 kts 53°
2026-04-29 16:27 22.32963 -83.87251 33045 ft 454 kts 53°
2026-04-29 16:27 22.34683 -83.84422 32620 ft 455 kts 52°
2026-04-29 16:27 22.36448 -83.81525 31257 ft 466 kts 52°
2026-04-29 16:27 22.38244 -83.78575 30094 ft 473 kts 52°
2026-04-29 16:28 22.40050 -83.75603 29095 ft 470 kts 53°
2026-04-29 16:28 22.41839 -83.72656 28246 ft 466 kts 53°
2026-04-29 16:28 22.43581 -83.69776 27485 ft 461 kts 53°
2026-04-29 16:28 22.45328 -83.66881 26740 ft 456 kts 53°
2026-04-29 16:29 22.47065 -83.64004 26017 ft 451 kts 53°
2026-04-29 16:29 22.48756 -83.61202 25347 ft 447 kts 53°
2026-04-29 16:29 22.50459 -83.58377 24687 ft 443 kts 53°
2026-04-29 16:29 22.52115 -83.55630 24056 ft 439 kts 53°
2026-04-29 16:30 22.53781 -83.52869 23396 ft 436 kts 53°
2026-04-29 16:30 22.55436 -83.50128 22717 ft 431 kts 53°
2026-04-29 16:30 22.57071 -83.47421 22071 ft 427 kts 53°
2026-04-29 16:30 22.58670 -83.44770 21467 ft 423 kts 53°
2026-04-29 16:31 22.60273 -83.42112 20896 ft 419 kts 53°
2026-04-29 16:31 22.61859 -83.39476 20324 ft 415 kts 54°
2026-04-29 16:31 22.63427 -83.36869 19780 ft 411 kts 54°
2026-04-29 16:31 22.64984 -83.34279 19256 ft 408 kts 54°
2026-04-29 16:32 22.66530 -83.31707 18747 ft 405 kts 54°
2026-04-29 16:32 22.68045 -83.29186 18247 ft 401 kts 54°
2026-04-29 16:32 22.69512 -83.26630 17682 ft 400 kts 60°
2026-04-29 16:32 22.70516 -83.23825 17132 ft 400 kts 73°
2026-04-29 16:33 22.71748 -83.17974 16060 ft 394 kts 75°
2026-04-29 16:33 22.72351 -83.15079 15548 ft 391 kts 75°
2026-04-29 16:33 22.72939 -83.12247 15048 ft 389 kts 75°
2026-04-29 16:34 22.73532 -83.09390 14560 ft 386 kts 75°
2026-04-29 16:34 22.74123 -83.06557 14086 ft 383 kts 75°
2026-04-29 16:34 22.74756 -83.03773 13558 ft 380 kts 73°
2026-04-29 16:34 22.75485 -83.01032 13081 ft 374 kts 71°
2026-04-29 16:35 22.76237 -82.98423 12956 ft 359 kts 70°
2026-04-29 16:35 22.76971 -82.95929 12826 ft 334 kts 70°
2026-04-29 16:35 22.77622 -82.93718 12595 ft 315 kts 70°
2026-04-29 16:35 22.78272 -82.91478 12065 ft 308 kts 71°
2026-04-29 16:36 22.78896 -82.89292 11471 ft 304 kts 71°
2026-04-29 16:36 22.79514 -82.87105 10848 ft 301 kts 71°
2026-04-29 16:36 22.80126 -82.84930 10252 ft 299 kts 71°
2026-04-29 16:36 22.80719 -82.82817 9632 ft 296 kts 71°
2026-04-29 16:37 22.81316 -82.80687 8956 ft 294 kts 72°
2026-04-29 16:37 22.81908 -82.78569 8352 ft 291 kts 72°
2026-04-29 16:37 22.82489 -82.76477 7688 ft 288 kts 72°
2026-04-29 16:37 22.82870 -82.75105 7243 ft 287 kts 72°
2026-04-29 16:38 22.83630 -82.72367 6441 ft 284 kts 73°
2026-04-29 16:38 22.84196 -82.70325 5780 ft 281 kts 73°
2026-04-29 16:38 22.84761 -82.68293 5050 ft 281 kts 73°
2026-04-29 16:38 22.85319 -82.66295 4400 ft 277 kts 73°
2026-04-29 16:39 22.85858 -82.64356 4149 ft 256 kts 73°
2026-04-29 16:39 22.86353 -82.62571 4019 ft 236 kts 73°
2026-04-29 16:39 22.86809 -82.60934 3911 ft 224 kts 73°
2026-04-29 16:39 22.87257 -82.59317 3820 ft 222 kts 73°
2026-04-29 16:40 22.87772 -82.57734 3727 ft 222 kts 60°
2026-04-29 16:40 22.88645 -82.56348 3452 ft 224 kts 54°
2026-04-29 16:40 22.89549 -82.55000 3042 ft 223 kts 54°
2026-04-29 16:40 22.90466 -82.53626 2694 ft 222 kts 54°
2026-04-29 16:41 22.91371 -82.52266 2376 ft 219 kts 54°
2026-04-29 16:41 22.92251 -82.50943 2079 ft 210 kts 54°
2026-04-29 16:41 22.93071 -82.49710 1854 ft 191 kts 54°
2026-04-29 16:41 22.93807 -82.48602 1614 ft 172 kts 53°
2026-04-29 16:42 22.94469 -82.47601 1387 ft 155 kts 53°
2026-04-29 16:42 22.95083 -82.46674 1228 ft 148 kts 53°
2026-04-29 16:42 22.95670 -82.45787 972 ft 141 kts 54°
2026-04-29 16:42 22.96217 -82.44952 759 ft 132 kts 54°
2026-04-29 16:43 22.96749 -82.44170 613 ft 129 kts 57°
2026-04-29 16:43 22.97281 -82.43357 421 ft 136 kts 51°
2026-04-29 16:43 22.97838 -82.42526 266 ft 134 kts 56°
2026-04-29 16:43 22.98339 -82.41761 217 ft 110 kts 54°
2026-04-29 16:44 22.98692 -82.41240 218 ft 61 kts 54°
2026-04-29 16:44 22.98875 -82.40965 218 ft 40 kts 54°
2026-04-29 16:44 22.99029 -82.40728 214 ft 37 kts 56°
2026-04-29 16:44 22.99140 -82.40560 215 ft 22 kts 53°
2026-04-29 16:45 22.99224 -82.40446 217 ft 17 kts 37°
2026-04-29 16:45 22.99343 -82.40407 219 ft 19 kts 10°
2026-04-29 16:45 22.99454 -82.40393 221 ft 15 kts 351°
2026-04-29 16:45 22.99502 -82.40416 217 ft 0 kts 326°
2026-04-29 16:46 22.99535 -82.40441 217 ft 14 kts 324°
2026-04-29 16:46 22.99589 -82.40503 220 ft 7 kts 281°
2026-04-29 16:46 22.99592 -82.40563 217 ft 11 kts 287°
2026-04-29 16:46 22.99623 -82.40621 220 ft 3 kts 303°
2026-04-29 16:47 22.99630 -82.40634 220 ft 1 kts 301°
2026-04-29 16:47 22.99631 -82.40635 220 ft 0 kts 301°
2026-04-29 16:49 22.99631 -82.40634 220 ft 0 kts 301°